Waarnemingen

Advertentie
Mijn weer
Lichtenhain-Mittelndorf, Duitsland (10591): temperatuur & dauwpunt: 17.07.2017 08:00:00 - 23.07.2017 08:00:00 (CEST)Lichtenhain-Mittelndorf, Duitsland (10591): temperatuur 5cm & temperatuur -5cm: 17.07.2017 08:00:00 - 23.07.2017 08:00:00 (CEST)Lichtenhain-Mittelndorf, Duitsland (10591): temperatuur -20cm & temperatuur -100cm: 17.07.2017 08:00:00 - 23.07.2017 08:00:00 (CEST)Lichtenhain-Mittelndorf, Duitsland (10591): windsnelheid & windstoten: 17.07.2017 08:00:00 - 23.07.2017 08:00:00 (CEST)Lichtenhain-Mittelndorf, Duitsland (10591): windrichting: 17.07.2017 08:00:00 - 23.07.2017 08:00:00 (CEST)Lichtenhain-Mittelndorf, Duitsland (10591): luchtdruk: 17.07.2017 08:00:00 - 23.07.2017 08:00:00 (CEST)Lichtenhain-Mittelndorf, Duitsland (10591): zicht: 17.07.2017 08:00:00 - 23.07.2017 08:00:00 (CEST)Lichtenhain-Mittelndorf, Duitsland (10591): Zonneschijnduur: 17.07.2017 08:00:00 - 23.07.2017 08:00:00 (CEST)Lichtenhain-Mittelndorf, Duitsland (10591): neerslag: 17.07.2017 08:00:00 - 23.07.2017 08:00:00 (CEST)
Datum & Tijd tt [°C] td [°C] tt 5cm [°C] tt -5cm [°C] tt -20cm [°C] tt -100cm [°C] ff [km/u] ff [kn] fx [km/u] fx [kn] dd ppp [hPa] vv [km] sd [min] rr [mm]
23.07.2017 08:00:00 19,4 16,9 20,7 19,5 20,3 18,3 6 3 16 9 ZZO 1013,4 20 18 0,0
23.07.2017 07:00:00 17,9 16,5 17,8 18,0 20,5 18,2 7 4 13 7 ONO 1013,1 19 35 0,0
23.07.2017 06:00:00 16,2 15,7 15,5 16,7 20,8 18,2 9 5 13 7 OZO 1013,5 15 0 0,0
23.07.2017 05:00:00 16,1 15,6 15,4 16,9 21,2 18,2 6 4 13 7 O 1013,5 11 0 0,0
23.07.2017 04:00:00 16,1 15,7 15,2 17,3 21,7 18,2 5 3 12 6 O 1013,3 9 0 0,0
23.07.2017 03:00:00 15,4 15,3 14,9 17,7 22,2 18,2 3 2 12 6 ZZO 1013,7 0,3 0 0,0
23.07.2017 02:00:00 16,0 15,8 15,8 18,2 22,7 18,2 5 3 12 6 ZO 1014,0 0,1 0 0,0
23.07.2017 01:00:00 17,3 16,7 16,7 18,9 23,2 18,2 10 5 13 7 OZO 1013,9 6 0 0,0
23.07.2017 00:00:00 17,2 17,0 16,7 19,6 23,8 18,2 5 3 10 6 OZO 1014,3 2,6 0 0,0
22.07.2017 23:00:00 18,2 17,7 17,2 20,5 24,4 18,2 3 2 7 4 OZO 1014,6 8 0 0,0
22.07.2017 22:00:00 19,3 17,7 18,1 21,6 25,0 18,1 4 2 10 5 OZO 1014,3 22 0 0,0
22.07.2017 21:00:00 19,9 17,5 19,1 23,2 25,4 18,1 8 4 10 5 ONO 1014,2 23 36 0,0
22.07.2017 20:00:00 21,2 17,4 21,1 25,3 25,7 18,1 2 1 8 4 NO 1013,6 28 60 0,0
22.07.2017 19:00:00 20,7 18,0 22,1 26,8 25,9 18,1 5 3 10 5 Z 1013,4 31 46 0,0
22.07.2017 18:00:00 20,1 18,1 23,0 26,1 26,3 18,1 4 2 16 9 Z 1013,7 20 7 0,8
22.07.2017 17:00:00 18,4 17,6 19,2 25,0 26,8 18,1 12 6 41 22 W 1014,0 4,2 0 0,6
22.07.2017 16:00:00 22,4 15,5 23,3 29,7 26,7 18,1 21 12 36 19 W 1012,7 49 0 0,0
22.07.2017 15:00:00 26,3 14,9 27,5 35,1 25,8 18,0 21 11 37 20 Z 1011,6 37 35 0,0
22.07.2017 14:00:00 27,5 15,0 30,9 35,2 24,8 18,0 22 12 36 19 ZZO 1011,8 24 29 0,0
22.07.2017 13:00:00 26,5 15,5 29,3 33,2 23,8 18,0 21 11 35 19 ZZO 1012,3 32 38 0,0
22.07.2017 12:00:00 25,9 15,8 29,4 32,1 22,8 18,0 14 8 27 14 ZO 1012,7 28 57 0,0
22.07.2017 11:00:00 25,1 16,1 29,5 28,9 22,0 18,0 14 8 23 13 Z 1012,8 40 41 0,0
22.07.2017 10:00:00 23,3 16,2 25,3 25,1 21,6 18,0 7 4 25 14 ZZO 1013,3 39 7 0,0
22.07.2017 09:00:00 22,3 15,5 23,7 23,8 21,3 17,9 13 7 18 10 ZZO 1013,2 29 49 0,0
22.07.2017 08:00:00 20,9 15,5 21,8 20,8 21,4 17,9 7 4 14 7 O 1013,1 38 19 0,0
22.07.2017 07:00:00 18,0 14,8 18,6 18,7 21,7 17,9 3 1 12 6 OZO 1013,5 34 46 0,0
22.07.2017 06:00:00 17,5 14,3 16,3 17,8 22,1 17,9 5 3 13 7 O 1013,5 26 0 0,0
22.07.2017 05:00:00 16,6 14,0 15,5 18,2 22,7 17,9 10 5 16 9 O 1013,2 26 0 0,0
22.07.2017 04:00:00 17,9 14,4 16,6 18,7 23,3 17,9 10 6 20 11 O 1012,9 30 0 0,0
22.07.2017 03:00:00 18,3 14,5 16,7 19,5 23,9 17,9 12 7 17 9 O 1013,4 33 0 0,0
22.07.2017 02:00:00 18,5 14,6 17,2 20,2 24,5 17,8 11 6 13 7 OZO 1013,6 37 0 0,0
22.07.2017 01:00:00 19,7 14,7 18,0 21,2 25,2 17,8 8 4 15 8 O 1013,5 39 0 0,0
22.07.2017 00:00:00 19,9 14,9 17,5 22,2 25,9 17,8 7 4 15 8 O 1013,4 45 0 0,0
21.07.2017 23:00:00 20,5 15,0 18,4 23,5 26,7 17,8 7 4 12 6 O 1013,5 47 0 0,0
21.07.2017 22:00:00 21,3 15,0 19,2 25,2 27,3 17,8 9 5 13 7 OZO 1013,5 46 0 0,0
21.07.2017 21:00:00 22,7 14,2 21,9 27,7 27,8 17,8 11 6 15 8 NO 1012,7 54 47 0,0
21.07.2017 20:00:00 25,4 13,2 25,0 31,0 28,0 17,8 6 3 9 5 N 1012,4 67 60 0,0
21.07.2017 19:00:00 26,2 11,8 27,1 33,7 27,8 17,8 3 1 11 6 NO 1012,4 63 60 0,0
21.07.2017 18:00:00 26,7 12,7 29,5 35,5 27,3 17,8 5 3 15 8 ZW 1012,5 60 60 0,0
21.07.2017 17:00:00 26,0 12,4 28,6 35,5 26,6 17,7 2 1 16 9 NW 1013,0 65 43 0,0
21.07.2017 16:00:00 25,8 14,3 30,7 35,8 25,6 17,7 10 5 16 9 NNW 1013,4 54 48 0,0
21.07.2017 15:00:00 25,5 14,5 31,9 36,1 24,5 17,7 10 5 19 10 WNW 1013,7 45 39 0,0
21.07.2017 14:00:00 25,1 15,1 31,3 36,2 23,1 17,7 6 3 20 11 OZO 1013,9 51 55 0,0
21.07.2017 13:00:00 22,8 15,7 25,6 32,1 22,0 17,7 9 5 19 11 WNW 1014,4 42 49 0,0
21.07.2017 12:00:00 22,3 15,9 27,8 28,9 21,1 17,7 7 4 17 9 NW 1014,8 35 49 0,0
21.07.2017 11:00:00 21,0 16,2 24,7 23,8 20,7 17,6 9 5 15 8 NW 1015,2 27 3 0,0
21.07.2017 10:00:00 19,7 16,3 21,9 21,7 20,5 17,6 8 5 19 10 W 1015,0 30 10 0,0
21.07.2017 09:00:00 19,3 16,1 21,8 21,0 20,4 17,6 9 5 14 8 W 1014,7 33 18 0,0
21.07.2017 08:00:00 17,0 16,3 17,5 18,5 20,5 17,6 5 3 7 4 ZZW 1014,7 14 0 0,0
21.07.2017 07:00:00 16,3 15,3 16,3 18,0 20,8 17,5 3 2 5 3 ONO 1014,2 13 0 0,0
21.07.2017 06:00:00 16,2 15,2 16,2 17,5 21,2 17,5 3 2 9 5 O 1013,9 13 0 0,0
21.07.2017 05:00:00 16,5 15,4 15,3 17,7 21,6 17,5 4 2 12 7 ZO 1013,6 27 0 0,0
21.07.2017 04:00:00 17,7 15,5 16,3 18,2 22,0 17,5 3 2 9 5 Z 1013,5 43 0 0,0
21.07.2017 03:00:00 18,4 15,6 16,7 18,6 22,5 17,5 4 2 14 8 Z 1013,3 49 0 0,0
21.07.2017 02:00:00 18,7 15,7 17,3 19,2 22,9 17,5 6 3 11 6 ZZW 1013,0 50 0 0,0
21.07.2017 01:00:00 18,7 16,4 17,8 19,9 23,4 17,4 6 4 9 5 Z 1012,7 38 0 0,0
21.07.2017 00:00:00 19,2 16,6 18,5 20,6 24,0 17,4 7 4 9 5 ZZW 1012,5 38 0 0,0
20.07.2017 23:00:00 19,8 16,8 19,4 21,4 24,5 17,4 4 2 15 8 W 1012,2 47 0 0,0
20.07.2017 22:00:00 20,0 16,7 19,6 21,9 25,1 17,4 10 5 20 11 W 1012,1 52 0 0,0
20.07.2017 21:00:00 20,5 16,9 20,0 23,2 25,6 17,4 16 9 26 14 W 1011,4 47 0 0,1
20.07.2017 20:00:00 23,2 18,7 22,8 25,5 26,0 17,3 6 3 10 5 ZZW 1010,4 45 27 0,0
20.07.2017 19:00:00 23,7 18,2 24,2 26,4 26,4 17,3 3 2 14 8 ZZW 1009,8 47 26 0,0
20.07.2017 18:00:00 22,2 18,8 22,0 26,1 26,9 17,3 12 6 23 12 ZW 1009,9 43 0 0,3
20.07.2017 17:00:00 24,4 17,5 25,3 28,6 27,2 17,3 7 4 18 10 ZZO 1009,2 59 0 0,0
20.07.2017 16:00:00 25,6 18,3 27,2 30,9 27,3 17,3 9 5 16 9 Z 1009,3 65 6 0,0
20.07.2017 15:00:00 25,4 18,6 27,2 33,9 26,5 17,2 10 5 26 14 NNW 1009,3 59 33 0,8
20.07.2017 14:00:00 28,2 14,4 35,3 39,1 25,2 17,2 5 3 18 10 ZZW 1008,9 59 57 0,0
20.07.2017 13:00:00 27,6 14,4 32,6 36,4 23,8 17,2 4 2 16 9 NW 1009,2 64 54 0,0
20.07.2017 12:00:00 26,6 16,4 32,7 33,8 22,6 17,2 8 4 16 9 Z 1009,7 55 60 0,0
20.07.2017 11:00:00 24,6 14,7 28,2 29,8 21,8 17,2 7 4 20 11 Z 1010,2 64 60 0,0
20.07.2017 10:00:00 23,5 15,7 27,6 25,8 21,3 17,1 8 4 13 7 ZZO 1010,6 51 58 0,0
20.07.2017 09:00:00 21,4 15,6 22,9 22,4 21,1 17,1 5 3 14 7 ZO 1010,8 57 31 0,0
20.07.2017 08:00:00 19,6 15,4 20,9 19,7 21,3 17,1 5 3 16 8 NNO 1010,4 63 10 0,0
20.07.2017 07:00:00 18,8 14,4 18,6 18,8 21,7 17,1 11 6 24 13 OZO 1009,9 70 0 0,0
20.07.2017 06:00:00 18,6 14,4 18,1 18,9 22,0 17,1 10 5 16 9 ZO 1011,3 70 0 0,0
20.07.2017 05:00:00 18,4 14,5 17,9 19,3 22,5 17,0 3 2 12 6 NNO 1012,3 70 0 0,0
20.07.2017 04:00:00 18,4 14,5 17,4 19,5 23,0 17,0 7 4 14 8 ZW 1012,3 70 0 0,0
20.07.2017 03:00:00 19,0 14,4 17,8 20,0 23,6 17,0 10 5 28 15 W 1012,8 70 0 0,0
20.07.2017 02:00:00 20,6 14,7 19,7 21,0 24,2 17,0 19 11 45 24 W 1012,6 45 0 0,0
20.07.2017 01:00:00 21,0 14,6 19,8 21,7 24,9 17,0 10 6 15 8 O 1010,4 46 0 0,0
20.07.2017 00:00:00 21,8 14,6 19,2 22,7 25,6 17,0 6 3 12 7 OZO 1011,3 48 0 0,0
19.07.2017 23:00:00 22,5 14,8 20,6 23,8 26,4 17,0 10 5 15 8 O 1011,4 49 0 0,0
19.07.2017 22:00:00 23,2 15,1 21,7 25,4 27,1 17,0 10 6 17 9 O 1011,1 49 0 0,0
19.07.2017 21:00:00 24,7 15,6 23,0 27,8 27,7 17,0 11 6 18 10 O 1011,2 54 16 0,0
19.07.2017 20:00:00 26,4 16,1 26,1 31,0 27,9 17,0 11 6 17 9 ONO 1010,9 52 60 0,0
19.07.2017 19:00:00 27,8 15,4 28,4 34,1 27,8 16,9 10 6 16 9 O 1010,9 57 53 0,0
19.07.2017 18:00:00 29,1 13,0 30,5 36,4 27,3 16,9 4 2 16 9 ZO 1011,3 64 52 0,0
19.07.2017 17:00:00 28,8 12,6 30,9 37,8 26,5 16,9 8 5 19 10 NNO 1011,7 65 60 0,0
19.07.2017 16:00:00 29,4 12,8 33,4 38,6 25,4 16,9 7 4 16 9 WNW 1012,1 43 60 0,0
19.07.2017 15:00:00 28,4 13,7 31,4 37,9 24,1 16,9 8 4 16 9 ZZO 1012,6 53 59 0,0
19.07.2017 14:00:00 28,0 13,5 32,3 36,0 22,8 16,9 5 3 14 7 WNW 1013,2 44 59 0,0
19.07.2017 13:00:00 27,3 13,9 30,3 33,2 21,6 16,9 8 5 15 8 NNO 1013,9 58 60 0,0
19.07.2017 12:00:00 27,0 15,0 31,3 30,5 20,4 16,9 4 2 16 8 OZO 1014,2 40 60 0,0
19.07.2017 11:00:00 25,6 14,2 28,8 27,6 19,4 16,9 3 2 12 7 OZO 1014,7 52 60 0,0
19.07.2017 10:00:00 23,6 14,6 27,9 24,6 18,6 16,8 6 3 11 6 Z 1015,3 47 60 0,0
19.07.2017 09:00:00 21,4 14,5 23,3 21,1 18,2 16,8 6 3 9 5 OZO 1015,8 40 60 0,0
19.07.2017 08:00:00 19,6 14,8 20,1 17,6 18,2 16,8 2 1 6 3 ONO 1016,3 33 60 0,0
19.07.2017 07:00:00 15,8 12,8 15,4 15,5 18,5 16,8 2 1 8 4 ONO 1016,7 31 54 0,0
19.07.2017 06:00:00 15,0 12,4 13,2 15,1 18,8 16,8 2 1 5 3 Z 1016,6 35 0 0,0
19.07.2017 05:00:00 14,5 12,3 13,2 15,3 19,3 16,8 3 1 7 4 NNO 1016,7 35 0 0,0
19.07.2017 04:00:00 15,1 12,2 13,9 15,7 19,7 16,8 7 4 8 4 NO 1016,9 40 0 0,0
19.07.2017 03:00:00 15,3 12,5 14,1 16,2 20,2 16,8 2 1 10 5 NNO 1017,5 32 0 0,0
19.07.2017 02:00:00 17,3 12,3 16,0 16,8 20,7 16,8 4 2 12 7 NO 1017,8 45 0 0,0
19.07.2017 01:00:00 16,8 13,7 15,1 17,4 21,2 16,8 7 4 11 6 OZO 1018,2 28 0 0,0
19.07.2017 00:00:00 18,4 12,7 15,8 18,2 21,8 16,8 10 5 12 6 OZO 1018,2 60 0 0,0
18.07.2017 23:00:00 19,2 13,1 16,3 19,1 22,4 16,7 4 2 11 6 O 1018,3 54 0 0,0
18.07.2017 22:00:00 19,6 13,6 17,0 20,2 23,0 16,7 9 5 17 9 O 1018,3 47 0 0,0
18.07.2017 21:00:00 21,1 14,0 20,1 22,0 23,4 16,7 13 7 18 10 ONO 1018,0 51 21 0,0
18.07.2017 20:00:00 23,0 14,2 22,6 24,3 23,6 16,7 11 6 17 9 NO 1017,8 44 60 0,0
18.07.2017 19:00:00 24,1 14,6 24,3 26,4 23,6 16,7 10 6 18 10 NO 1017,8 47 60 0,0
18.07.2017 18:00:00 24,6 14,5 26,1 27,9 23,4 16,7 9 5 19 10 N 1018,2 46 58 0,0
18.07.2017 17:00:00 24,1 13,6 25,9 28,3 23,0 16,7 10 5 21 11 NNO 1018,8 49 28 0,0
18.07.2017 16:00:00 24,5 13,8 28,4 29,8 22,5 16,7 5 3 20 11 WNW 1019,3 55 43 0,0
18.07.2017 15:00:00 23,5 13,5 27,2 27,7 21,9 16,7 5 3 18 10 NO 1019,8 57 20 0,0
18.07.2017 14:00:00 23,1 14,2 26,1 28,7 21,1 16,7 3 2 16 9 ONO 1020,4 57 25 0,0
18.07.2017 13:00:00 23,1 13,9 28,1 29,6 20,0 16,7 4 2 17 9 OZO 1020,8 51 60 0,0
18.07.2017 12:00:00 22,0 13,2 26,8 27,7 18,9 16,7 8 4 18 10 N 1021,2 45 60 0,0
18.07.2017 11:00:00 21,0 12,2 25,2 24,6 18,0 16,7 7 4 20 11 NNO 1021,7 55 58 0,0
18.07.2017 10:00:00 19,9 14,5 22,9 21,6 17,5 16,7 4 2 7 4 NO 1022,0 47 29 0,0
18.07.2017 09:00:00 16,3 15,2 17,4 17,7 17,4 16,7 3 2 5 3 NNO 1022,4 17 0 0,0
18.07.2017 08:00:00 14,8 14,5 15,1 16,0 17,4 16,6 2 1 5 3 ZO 1022,6 11 0 0,0
18.07.2017 07:00:00 13,9 13,5 14,3 15,4 17,6 16,6 3 2 7 4 Z 1022,8 11 0 0,0
18.07.2017 06:00:00 13,8 13,5 13,8 14,9 17,9 16,6 5 3 6 4 O 1022,5 11 0 0,0
18.07.2017 05:00:00 13,5 13,2 12,9 14,5 18,3 16,6 0 0 8 4 N 1022,5 8 0 0,0
18.07.2017 04:00:00 13,7 13,5 12,9 15,0 18,7 16,6 4 2 6 3 ZO 1022,5 0,7 0 0,0
18.07.2017 03:00:00 14,4 14,2 13,7 15,4 19,1 16,6 2 1 5 3 ZZO 1022,6 2,6 0 0,0
18.07.2017 02:00:00 14,9 14,4 13,6 15,9 19,6 16,6 3 2 5 3 ZZO 1022,4 10 0 0,0
18.07.2017 01:00:00 15,9 15,0 14,2 16,4 20,0 16,6 4 2 10 5 OZO 1022,4 21 0 0,0
18.07.2017 00:00:00 16,0 14,9 15,0 17,3 20,5 16,6 9 5 10 5 NNO 1022,0 17 0 0,0
17.07.2017 23:00:00 17,1 15,2 16,0 18,4 21,0 16,6 6 3 9 5 N 1022,0 20 0 0,0
17.07.2017 22:00:00 18,2 15,5 17,7 19,7 21,4 16,6 7 4 13 7 NNW 1021,6 25 0 0,0
17.07.2017 21:00:00 18,7 15,5 18,3 20,5 21,7 16,6 8 5 16 8 NNW 1021,3 34 0 0,0
17.07.2017 20:00:00 19,7 15,6 19,8 21,8 21,9 16,6 12 7 18 10 NNW 1020,7 41 0 0,0
17.07.2017 19:00:00 20,6 15,4 21,1 23,7 21,9 16,6 15 8 23 13 NNW 1020,3 49 25 0,0
17.07.2017 18:00:00 22,4 15,9 23,8 25,7 21,7 16,6 17 9 25 13 NNW 1020,1 43 32 0,0
17.07.2017 17:00:00 21,8 15,7 23,9 26,6 21,2 16,6 8 4 19 10 NNW 1020,3 54 38 0,0
17.07.2017 16:00:00 21,1 16,4 23,4 25,7 20,6 16,6 15 8 21 11 NNW 1020,4 63 34 0,0
17.07.2017 15:00:00 20,7 15,6 23,9 25,4 20,0 16,6 10 5 16 8 WNW 1020,9 46 15 0,0
17.07.2017 14:00:00 19,0 16,9 20,2 23,9 19,5 16,6 8 4 22 12 NW 1021,2 21 11 0,3
17.07.2017 13:00:00 20,2 15,5 24,9 23,6 18,9 16,5 11 6 19 10 WNW 1021,0 48 5 0,0
17.07.2017 12:00:00 19,2 16,4 22,2 22,7 18,4 16,5 9 5 17 9 WNW 1021,2 43 9 0,0
17.07.2017 11:00:00 17,6 16,7 19,4 19,3 18,2 16,5 6 3 14 8 NW 1021,5 13 0 0,8
17.07.2017 10:00:00 17,6 15,9 19,0 19,5 18,0 16,5 10 6 20 11 W 1021,3 16 0 0,0
17.07.2017 09:00:00 17,3 15,1 18,4 18,4 18,0 16,5 14 7 23 12 W 1021,3 21 0 0,0
17.07.2017 08:00:00 17,2 14,6 17,8 17,5 18,0 16,5 9 5 17 9 W 1021,0 34 0 0,0

tt = temperatuur
td = dauwpunt
tt 5cm = temperatuur 5cm
tt -5cm = temperatuur -5cm
tt -20cm = temperatuur -20cm
tt -100cm = temperatuur -100cm
ff = windsnelheid
fx = windstoten
dd = windrichting
ppp = luchtdruk
vv = zicht
sd = Zonneschijnduur
rr = neerslag

Weerstations in de omgeving